Meteo Giornale » Osservazioni meteo Gran Bretagna » Prestwick
ore: 00:50 - Osservazioni Meteo Prestwick
Lat. 55° 30' N Lon. 4° 35' W Alt. 20 metri s.l.m.
14 °C
Pioggia
Temp. 24 Ore
13 °C
18 °C
Ovest/Sud-Ovest
7.4 Km/h
Dew point 14 °C
Umidità 100 %
Visibilità 10 Km
Il sole sorge alle ore 06:25
Il sole tramonta alle ore 20:10
| Data e Ora | Cielo e Fenomeni | T °C | DP °C | Um. % | Pres. hPa | Vis. km | Vento km/h | |
|---|---|---|---|---|---|---|---|---|
| Oggi h: 00:50 | Pioggia | 14 | 14 | 100 | 1014 | 10 | O/SO 7.4 | |
| Oggi h: 00:20 | Pioggia | 14 | 14 | 100 | 1014 | 8 | O 7.4 | |
| Ieri h: 23:50 | Pioggia | 14 | 14 | 100 | 1014 | 8 | O 9.3 | |
| Ieri h: 23:20 | Pioggia | 14 | 14 | 100 | 1014 | 8 | O 13 | |
| Ieri h: 22:50 | Pioggia | 14 | 14 | 100 | 1014 | 8 | N 5.5 | |
| Ieri h: 22:20 | Pioggia | 14 | 13 | 93 | 1014 | 8 | NO 9.3 | |
| Ieri h: 21:50 | Pioggia | 14 | 14 | 100 | 1014 | 6 | O 7.4 | |
| Ieri h: 21:20 | Pioggia | 15 | 15 | 100 | 1014 | 3 | O/NO 13 | |
| Ieri h: 20:50 | Pioggia | 15 | 14 | 93 | 1014 | 10 | O/SO 13 | |
| Ieri h: 20:20 | Pioggia | 15 | 14 | 93 | 1014 | 10 | O/SO 14.8 | |
| Ieri h: 19:50 | Molto Nuvoloso | 16 | 14 | 87 | 1013 | 10 | O/SO 16.7 | |
| Ieri h: 19:20 | Molto Nuvoloso | 16 | 14 | 87 | 1014 | 10 | O 14.8 | |
| Ieri h: 18:50 | Molto Nuvoloso | 16 | 14 | 87 | 1014 | 10 | O/SO 16.7 | |
| Ieri h: 18:20 | Pioggia | 16 | 14 | 87 | 1014 | 10 | O/SO 16.7 | |
| Ieri h: 17:50 | Molto Nuvoloso | 17 | 14 | 82 | 1013 | 10 | O/SO 16.7 | |
| Ieri h: 17:20 | Molto Nuvoloso | 17 | 14 | 82 | 1013 | 10 | SO 22.2 | |
| Ieri h: 16:50 | Molto Nuvoloso | 17 | 14 | 82 | 1013 | 10 | SO 24 | |
| Ieri h: 16:20 | Molto Nuvoloso | 17 | 14 | 82 | 1013 | 10 | SO 25.9 | |
| Ieri h: 15:50 | Molto Nuvoloso | 17 | 15 | 88 | 1013 | 10 | SO 25.9 | |
| Ieri h: 15:20 | Coperto | 16 | 15 | 93 | 1013 | 10 | O/SO 25.9 | |
| Ieri h: 14:50 | Pioggia | 16 | 15 | 93 | 1013 | 8 | O/SO 24 | |
| Ieri h: 14:20 | Pioggia | 17 | 14 | 82 | 1013 | 8 | SO 29.6 | |
| Ieri h: 13:50 | Coperto | 18 | 14 | 77 | 1013 | 10 | SO 27.8 | |
| Ieri h: 13:20 | Molto Nuvoloso | 18 | 13 | 72 | 1013 | 10 | SO 35.2 | |
| Ieri h: 12:50 | Molto Nuvoloso | 17 | 14 | 82 | 1013 | 10 | SO 31.5 | |
| Ieri h: 12:20 | Coperto | 16 | 14 | 87 | 1013 | 10 | SO 29.6 | |
| Ieri h: 11:50 | Coperto | 17 | 14 | 82 | 1013 | 10 | SO 35.2 | |
| Ieri h: 11:20 | Pioggia | 16 | 13 | 82 | 1013 | 10 | SO 29.6 | |
| Ieri h: 10:50 | Molto Nuvoloso | 16 | 14 | 87 | 1013 | 10 | S/SO 22.2 | |
| Ieri h: 10:20 | Pioggia | 15 | 13 | 87 | 1013 | 9 | S/SO 24 | |
| Ieri h: 09:50 | Pioggia | 15 | 13 | 87 | 1013 | 10 | S/SO 24 | |
| Ieri h: 09:20 | Pioggia | 15 | 13 | 87 | 1013 | 9 | S/SO 24 | |
| Ieri h: 08:50 | Pioggia | 15 | 13 | 87 | 1013 | 10 | S/SO 24 | |
| Ieri h: 08:20 | Pioggia | 14 | 13 | 93 | 1013 | 10 | S/SO 22.2 | |
| Ieri h: 07:50 | Pioggia | 14 | 12 | 87 | 1013 | 10 | S/SO 22.2 | |
| Ieri h: 07:20 | Pioggia | 14 | 12 | 87 | 1013 | 7 | S/SO 20.3 | |
| Ieri h: 06:50 | Nuvoloso | 14 | 12 | 87 | 1013 | 10 | S/SO 16.7 | |
| Ieri h: 06:20 | Molto Nuvoloso | 14 | 12 | 87 | 1013 | 10 | S/SO 18.5 | |
| Ieri h: 05:50 | Molto Nuvoloso | 14 | 12 | 87 | 1013 | 10 | S 16.7 | |
| Ieri h: 05:20 | Molto Nuvoloso | 14 | 12 | 87 | 1013 | 10 | S/SO 18.5 | |
| Ieri h: 04:50 | Molto Nuvoloso | 14 | 12 | 87 | 1013 | 10 | S 14.8 | |
| Ieri h: 04:20 | Molto Nuvoloso | 14 | 12 | 87 | 1013 | 10 | S 14.8 | |
| Ieri h: 03:50 | Molto Nuvoloso | 14 | 12 | 87 | 1014 | 10 | S/SO 16.7 | |
| Ieri h: 03:20 | Molto Nuvoloso | 14 | 12 | 87 | 1014 | 10 | S 14.8 | |
| Ieri h: 02:50 | Molto Nuvoloso | 13 | 12 | 93 | 1014 | 10 | S 13 | |
| Ieri h: 02:20 | Molto Nuvoloso | 13 | 12 | 93 | 1014 | 10 | S 14.8 | |
| Ieri h: 01:50 | Molto Nuvoloso | 14 | 12 | 87 | 1014 | 10 | S/SO 14.8 | |



